[[{"header":{"parameterUnit":"m.s-1","parameterCategory":1,"la1":30.2991,"la2":30.254,"lo1":-89.0895,"lo2":-89.0444,"dy":0.0017,"dx":0.0017,"nx":28,"ny":28,"refTime":"2023-09-12T03:00:00:Z","depth":0,"parameterNumber":2,"parameterNumberName":"U-component_of_WINDS"},"data":[0,0,0,0,0,0,0,0,0,0,0,0,0,0,0,0,0,0,0,0,0,0,0,0,0,0,0,0,0,0,0,0,0,0,0,0,0,0,0,0,0,0,0,0,0,0,0,0,0,0,0,0,0,0,0,0,0,0,0.4415,0.4416,0,0.4516,0.4518,0.4519,0.4533,0.4532,0.4531,0.453,0.4637,0.4641,0.4644,0,0,0,0,0,0,0,0,0,0,0,0,0,0.4236,0.4239,0.4415,0.4416,0.4418,0.4516,0.4518,0.4519,0.4533,0.4532,0.4531,0.453,0.4636,0.464,0.4645,0,0,0,0,0,0,0,0,0,0,0,0,0,0.4323,0.424,0.4415,0.4436,0.4439,0.4516,0.4518,0.4519,0.4533,0.4532,0.453,0.4529,0.4634,0.464,0.4645,0.4709,0,0,0.4663,0.4665,0,0,0,0,0,0,0,0,0.4318,0.433,0.4432,0.4435,0.4438,0.451,0.4494,0.4583,0.4534,0.4498,0.453,0.4528,0.4596,0.4605,0.4627,0.4714,0.4718,0.4663,0.4666,0.4669,0.467,0,0,0,0,0,0,0,0.4312,0.4326,0.4455,0.4433,0.4437,0.4442,0.4453,0.4511,0.4554,0.4501,0.4502,0.4514,0.4598,0.4622,0.463,0.472,0.4663,0.4668,0.4671,0.4674,0.4862,0.4864,0,0,0,0,0,0,0.4302,0.4321,0.4452,0.4458,0.4374,0.4446,0.4458,0.4489,0.4553,0.4562,0.4515,0.4514,0.4613,0.4623,0.4634,0.4711,0.4669,0.4674,0.4677,0.4861,0.4863,0.4864,0,0,0,0,0,0,0.4298,0.4314,0.4448,0.439,0.4407,0.4451,0.4485,0.4492,0.4515,0.4564,0.4572,0.4531,0.4612,0.4626,0.4689,0.4715,0.4677,0.4682,0.4859,0.4861,0.4863,0.4866,0,0,0,0,0,0,0.4293,0.4312,0.4336,0.439,0.441,0.4501,0.4487,0.4495,0.4525,0.4525,0.4581,0.4589,0.4612,0.4681,0.4695,0.4722,0.4686,0.4856,0.486,0.4863,0.4864,0.4869,0.4873,0,0,0,0,0,0.4286,0.4334,0.4337,0.4353,0.4441,0.4503,0.4514,0.4538,0.4527,0.4551,0.4582,0.4587,0.471,0.4687,0.4703,0.4732,0.4855,0.4859,0.4862,0.4862,0.4868,0.4872,0,0,0,0,0,0,0.4283,0.4341,0.4346,0.4412,0.4452,0.4505,0.4537,0.4544,0.4589,0.4587,0.4616,0.4629,0.4691,0.4718,0.4692,0.4796,0.4782,0.4789,0.4776,0.4782,0.4786,0.4778,0.4691,0,0,0,0,0,0.4289,0.4334,0.4383,0.4437,0.4456,0.4493,0.4521,0.4536,0.4579,0.4597,0.4632,0.4675,0.4723,0.4754,0.4801,0.4868,0.4881,0.4896,0.49,0.4904,0.4909,0.4946,0.4953,0.4876,0.4876,0.4876,0,0,0.4304,0.4342,0.4368,0.4437,0.447,0.4515,0.4507,0.4556,0.4591,0.4605,0.4666,0.4694,0.4743,0.4809,0.4839,0.4833,0.4933,0.4908,0.491,0.4914,0.4951,0.4958,0.4964,0.4879,0.4879,0.4878,0,0,0.4354,0.4387,0.4434,0.4467,0.4517,0.4541,0.4552,0.4604,0.4622,0.4684,0.4695,0.4737,0.4819,0.4854,0.4882,0.4944,0.495,0.4958,0.498,0.5015,0.5021,0.5027,0.5048,0.5056,0.4964,0.4964,0.4964,0,0.4366,0.4434,0.4459,0.4507,0.4536,0.455,0.4598,0.4629,0.4692,0.4713,0.4705,0.4807,0.4842,0.4915,0.493,0.4952,0.4966,0.4952,0.5018,0.5024,0.503,0.505,0.5058,0.4965,0.4965,0.4965,0.4964,0,0.4446,0.4494,0.4527,0.4585,0.4619,0.4667,0.4699,0.473,0.4742,0.4767,0.483,0.4871,0.4926,0.4945,0.4958,0.502,0.5015,0.5012,0.4998,0.5037,0.5057,0.5065,0.4965,0.4965,0.4965,0.4965,0,0,0.4497,0.4567,0.4579,0.4605,0.466,0.4698,0.4747,0.4799,0.4825,0.4868,0.4909,0.4978,0.4976,0.5008,0.5025,0.5056,0.5101,0.505,0.5052,0.5058,0.5171,0.5172,0.5181,0.5106,0.5108,0.5109,0.5167,0,0.4552,0.4638,0.4661,0.4734,0.4778,0.4791,0.4834,0.4873,0.4897,0.4938,0.4966,0.5014,0.5008,0.5027,0.5059,0.5089,0.5125,0.5085,0.5145,0.5147,0.5131,0.5191,0.5192,0.5245,0.5175,0.5176,0.5177,0,0.4628,0.467,0.4748,0.4796,0.4816,0.4853,0.4903,0.4942,0.4987,0.5002,0.5037,0.5051,0.5103,0.5086,0.5158,0.5131,0.5157,0.5175,0.5178,0.5184,0.5164,0.5198,0.5262,0.527,0.519,0.5189,0.5188,0,0.4655,0.4732,0.4788,0.4811,0.4869,0.4895,0.4921,0.4964,0.4993,0.5037,0.5057,0.5107,0.5134,0.5172,0.5199,0.5184,0.5268,0.5254,0.5283,0.5282,0.5299,0.5298,0.5368,0.5317,0.5317,0.5317,0.5317,0,0.4714,0.476,0.4801,0.4835,0.4888,0.4914,0.4966,0.4992,0.503,0.507,0.5085,0.5123,0.5156,0.5199,0.522,0.5276,0.5288,0.5303,0.5308,0.5301,0.5299,0.5318,0.5314,0.5319,0.5319,0.5318,0.5318,0,0.4753,0.4782,0.4844,0.4894,0.4907,0.4944,0.4987,0.5021,0.5046,0.5096,0.511,0.5149,0.5199,0.523,0.5294,0.5309,0.537,0.5374,0.5354,0.5356,0.5383,0.538,0.5467,0.548,0.5421,0.5422,0.5422,0,0.4788,0.4824,0.4877,0.4905,0.493,0.4974,0.5004,0.5032,0.5063,0.5115,0.5143,0.5194,0.5236,0.5316,0.5351,0.54,0.5405,0.5432,0.5412,0.5404,0.5404,0.5401,0.5404,0.5435,0.5435,0.5436,0.5436,0,0.4847,0.4859,0.4901,0.4949,0.4984,0.5023,0.5062,0.5083,0.5117,0.5151,0.5202,0.5235,0.5299,0.535,0.5402,0.5429,0.5438,0.5442,0.5451,0.5444,0.5431,0.5437,0.5362,0.544,0.5439,0.5439,0.5439,0.5439,0.4884,0.4916,0.4958,0.5005,0.5037,0.5073,0.5107,0.5135,0.5178,0.5232,0.5246,0.5299,0.5342,0.5412,0.5441,0.5483,0.5479,0.5493,0.5496,0.5499,0.5498,0.5424,0.5493,0.5493,0.5493,0.5493,0.5493,0,0.4942,0.497,0.5013,0.5066,0.5103,0.5107,0.515,0.5181,0.5227,0.5266,0.5307,0.5365,0.5414,0.5452,0.5502,0.5528,0.5534,0.5541,0.5539,0.5545,0.55,0.5486,0.5535,0.5535,0.5535,0.5535,0.5535,0.5535,0.4977,0.5031,0.5049,0.5119,0.5147,0.5198,0.5222,0.5255,0.5287,0.535,0.539,0.5415,0.5454,0.5506,0.5551,0.5561,0.5579,0.5585,0.5595,0.5553,0.5548,0.5543,0.5531,0.5588,0.5588,0.5637,0.5637,0.5637]},{"header":{"parameterUnit":"m.s-1","parameterCategory":1,"la1":30.2991,"la2":30.254,"lo1":-89.0895,"lo2":-89.0444,"dy":0.0017,"dx":0.0017,"nx":28,"ny":28,"refTime":"2023-09-12T03:00:00:Z","depth":0,"parameterNumber":3,"parameterNumberName":"V-component_of_WINDS"},"data":[0,0,0,0,0,0,0,0,0,0,0,0,0,0,0,0,0,0,0,0,0,0,0,0,0,0,0,0,0,0,0,0,0,0,0,0,0,0,0,0,0,0,0,0,0,0,0,0,0,0,0,0,0,0,0,0,0,0,3.4329,3.4329,0,3.4272,3.4272,3.4271,3.4203,3.4202,3.4201,3.42,3.4141,3.414,3.414,0,0,0,0,0,0,0,0,0,0,0,0,0,3.4377,3.4377,3.4329,3.4328,3.4328,3.4273,3.4272,3.4271,3.4203,3.4202,3.42,3.4199,3.4141,3.414,3.414,0,0,0,0,0,0,0,0,0,0,0,0,0,3.4342,3.4377,3.4329,3.4287,3.4283,3.4273,3.4272,3.4271,3.4203,3.4202,3.42,3.4198,3.4141,3.414,3.414,3.4166,0,0,3.4137,3.4137,0,0,0,0,0,0,0,0,3.4344,3.434,3.4294,3.429,3.4285,3.4243,3.4267,3.4236,3.4204,3.4233,3.42,3.4198,3.4176,3.4172,3.4165,3.4163,3.4161,3.4137,3.4136,3.4136,3.4136,0,0,0,0,0,0,0,3.4347,3.4343,3.4307,3.4293,3.4288,3.4271,3.4264,3.4261,3.4214,3.4231,3.4226,3.422,3.4173,3.4166,3.4163,3.416,3.4137,3.4136,3.4136,3.4135,3.4174,3.4176,0,0,0,0,0,0,3.4356,3.4345,3.4308,3.4305,3.4311,3.4271,3.4264,3.4258,3.4214,3.4206,3.4221,3.4217,3.4168,3.4164,3.4161,3.4186,3.4136,3.4135,3.4135,3.4173,3.4175,3.4176,0,0,0,0,0,0,3.4357,3.4353,3.4311,3.4324,3.4317,3.4272,3.4266,3.4258,3.425,3.4207,3.4198,3.4222,3.4167,3.4162,3.4165,3.4183,3.4135,3.4134,3.4171,3.4173,3.4175,3.424,0,0,0,0,0,0,3.4359,3.4354,3.4364,3.4324,3.4316,3.4316,3.4268,3.4258,3.4249,3.4243,3.4206,3.4198,3.4165,3.4166,3.4164,3.4181,3.4133,3.4169,3.4172,3.4175,3.4235,3.4244,3.4251,0,0,0,0,0,3.4361,3.4385,3.4365,3.4361,3.4328,3.4317,3.4313,3.4275,3.4251,3.426,3.4232,3.4199,3.4183,3.4167,3.4164,3.4181,3.4168,3.4171,3.4175,3.4232,3.4242,3.4251,0,0,0,0,0,0,3.4427,3.4379,3.4356,3.4368,3.4347,3.4306,3.4316,3.4287,3.4272,3.4267,3.4221,3.4213,3.422,3.4202,3.4185,3.4203,3.417,3.4173,3.4215,3.4224,3.4232,3.4235,3.4133,0,0,0,0,0,3.4444,3.4439,3.4397,3.4412,3.4402,3.4362,3.4355,3.4328,3.4304,3.4295,3.4267,3.4246,3.4235,3.4229,3.4217,3.4233,3.4223,3.4244,3.4251,3.4258,3.426,3.4264,3.4272,3.4188,3.4188,3.4188,0,0,3.4477,3.445,3.445,3.4424,3.4405,3.4401,3.4354,3.4352,3.4348,3.4295,3.4294,3.4274,3.4246,3.4255,3.4258,3.424,3.4282,3.4262,3.4268,3.4266,3.4269,3.4277,3.4284,3.419,3.419,3.4189,0,0,3.4534,3.4515,3.4523,3.4505,3.4476,3.4449,3.4451,3.4414,3.4397,3.4397,3.4356,3.4351,3.4335,3.4316,3.4304,3.4354,3.4323,3.4352,3.4391,3.4396,3.4402,3.4408,3.4423,3.4429,3.4355,3.4355,3.4355,0,3.4578,3.4571,3.4531,3.4531,3.452,3.4472,3.448,3.4464,3.4433,3.4426,3.4407,3.4384,3.4363,3.4365,3.4377,3.437,3.437,3.4355,3.4405,3.441,3.4415,3.4428,3.4434,3.4359,3.4358,3.4358,3.4358,0,3.4625,3.4621,3.4631,3.4602,3.4593,3.4597,3.4557,3.4553,3.4526,3.4501,3.45,3.4472,3.4453,3.4452,3.4426,3.445,3.4439,3.4414,3.4378,3.4427,3.4439,3.4444,3.4364,3.4362,3.4361,3.4361,0,0,3.4721,3.467,3.4674,3.466,3.4625,3.462,3.4622,3.4603,3.4598,3.4579,3.4578,3.4565,3.454,3.4527,3.4499,3.4504,3.4542,3.4476,3.4475,3.4487,3.4563,3.458,3.4587,3.4522,3.4523,3.4523,3.4564,0,3.4769,3.4769,3.4733,3.4742,3.4736,3.4691,3.4692,3.467,3.4646,3.4637,3.4611,3.4601,3.4571,3.4562,3.4565,3.4537,3.4556,3.4534,3.4518,3.4517,3.4523,3.4594,3.4613,3.4653,3.4569,3.457,3.457,0,3.4825,3.4809,3.4817,3.4781,3.4777,3.4779,3.4757,3.475,3.4724,3.4706,3.4692,3.466,3.4657,3.4627,3.4621,3.4607,3.4599,3.4584,3.4584,3.4579,3.4545,3.4588,3.4665,3.467,3.4578,3.4577,3.4577,0,3.4891,3.4871,3.4873,3.4862,3.482,3.4822,3.4805,3.4777,3.4768,3.475,3.4743,3.4725,3.4714,3.4701,3.4664,3.4646,3.4662,3.4629,3.4645,3.4646,3.4649,3.4648,3.4723,3.4648,3.4648,3.4648,3.4648,0,3.4947,3.4953,3.4901,3.4902,3.4907,3.4867,3.4873,3.4851,3.4827,3.4822,3.4782,3.4778,3.4732,3.4722,3.4694,3.4692,3.4689,3.4673,3.4664,3.4675,3.4676,3.4667,3.4662,3.465,3.4649,3.4649,3.4649,0,3.5019,3.4985,3.4984,3.4945,3.4935,3.494,3.4906,3.4905,3.4879,3.4873,3.4869,3.4828,3.4815,3.4778,3.4755,3.4736,3.4741,3.4728,3.475,3.4744,3.4762,3.476,3.483,3.4836,3.4761,3.4761,3.4762,0,3.5056,3.5059,3.5021,3.5015,3.4999,3.499,3.498,3.494,3.4931,3.4902,3.4903,3.4887,3.4871,3.4851,3.4819,3.4801,3.4785,3.4811,3.4782,3.4791,3.4782,3.4781,3.478,3.4817,3.4818,3.4818,3.4819,0,3.5123,3.5106,3.5093,3.5075,3.5064,3.5048,3.5029,3.5026,3.4981,3.4973,3.4959,3.4947,3.4923,3.4907,3.4883,3.4864,3.4833,3.4829,3.4831,3.484,3.4852,3.4843,3.4764,3.4827,3.4826,3.4826,3.4825,3.4825,3.5176,3.5177,3.515,3.5137,3.5119,3.5102,3.5098,3.5072,3.506,3.5037,3.5015,3.5003,3.4975,3.4941,3.4924,3.4912,3.4897,3.4901,3.4901,3.4902,3.4906,3.4856,3.4908,3.4908,3.4908,3.4908,3.4907,0,3.524,3.522,3.5209,3.5183,3.5173,3.5147,3.5125,3.5117,3.5107,3.5085,3.507,3.5053,3.5036,3.5003,3.4983,3.498,3.4966,3.4976,3.4975,3.497,3.4922,3.4921,3.4988,3.4988,3.4988,3.4988,3.4988,3.4988,3.5271,3.527,3.525,3.5238,3.5218,3.5207,3.5196,3.518,3.5161,3.5144,3.513,3.5109,3.5081,3.5059,3.5042,3.5032,3.5026,3.504,3.5026,3.4982,3.4974,3.4966,3.4965,3.504,3.504,3.5074,3.5074,3.5075]}]]